Location: Appleton
(44.2618°N, 88.4157°W)
Time: 18:40:27
(UTC+00:00)

A-11 Canister half - Visible Passes

Search period start: 04 March 2021 00:00
Search period end: 14 March 2021 00:00
Orbit: 1525 x 1684 km, 47.3° (Epoch: 03 March)

Date Brightness Start Highest point End Pass type
(mag) Time Alt. Az. Time Alt. Az. Time Alt. Az.
04 Mar 10.0 08:32:07 33° SE 08:32:07 33° SE 08:40:08 10° ENE visible
04 Mar 9.0 10:30:25 29° WSW 10:36:11 80° SSE 10:45:35 10° ENE visible
05 Mar 10.1 08:11:42 31° ESE 08:11:42 31° ESE 08:18:25 10° ENE visible
05 Mar 9.0 10:10:00 37° SW 10:14:31 78° SSE 10:23:56 10° ENE visible
06 Mar 10.3 07:51:14 27° ESE 07:51:14 27° ESE 07:56:42 10° ENE visible
06 Mar 9.0 09:49:32 47° SW 09:52:52 75° SSE 10:02:17 10° ENE visible
06 Mar 9.1 11:48:30 10° W 11:58:08 75° N 12:07:31 10° E visible
07 Mar 10.5 07:30:44 23° E 07:30:44 23° E 07:34:57 10° ENE visible
07 Mar 9.0 09:29:01 57° SSW 09:31:13 73° SSE 09:40:38 10° ENE visible
07 Mar 9.1 11:27:18 12° W 11:36:27 75° N 11:45:51 10° E visible
08 Mar 10.7 07:10:10 19° E 07:10:10 19° E 07:13:12 10° ENE visible
08 Mar 8.9 09:08:28 66° S 09:09:33 71° SSE 09:18:59 10° ENE visible
08 Mar 9.1 11:06:44 17° W 11:14:46 76° N 11:24:10 10° E visible
09 Mar 10.9 06:49:35 15° E 06:49:35 15° E 06:51:26 10° E visible
09 Mar 9.0 08:47:52 69° SSE 08:47:54 69° SSE 08:57:20 10° ENE visible
09 Mar 9.1 10:46:09 22° W 10:53:05 76° N 11:02:30 10° E visible
10 Mar 11.0 06:28:57 12° E 06:28:57 12° E 06:29:40 10° E visible
10 Mar 9.1 08:27:14 64° ESE 08:27:14 64° ESE 08:35:41 10° ENE visible
10 Mar 9.0 10:25:31 28° W 10:31:23 77° N 10:40:51 10° ENE visible
11 Mar 9.4 08:06:35 55° E 08:06:35 55° E 08:14:01 10° ENE visible
11 Mar 9.0 10:04:51 35° W 10:09:42 78° N 10:19:10 10° ENE visible
12 Mar 9.6 07:45:53 46° E 07:45:53 46° E 07:52:22 10° ENE visible
12 Mar 9.0 09:44:10 43° W 09:48:00 79° N 09:57:31 10° ENE visible
13 Mar 9.9 07:25:11 38° E 07:25:11 38° E 07:30:42 10° ENE visible
13 Mar 9.0 09:23:28 52° W 09:26:19 80° NNW 09:35:51 10° ENE visible
13 Mar 9.1 11:22:13 10° WNW 11:31:56 80° NNE 11:41:20 10° E visible
